Location: Newark
(25.1987°N, 100.3705°W)
Time: 04:30:22
(UTC+00:00)

LightSail 2 - Pass Details

Date: 09 April 2020
Orbit: 695 x 719 km, 24.0° (Epoch: 28 May)

Event Time Altitude Azimuth Distance (km) Brightness Sun altitude
Exits shadow 10:16:49 51° 116° (ESE) 873 5.7 -28.4°
Drops below altitude 10° 10:20:46 10° 90° (E) 2,142 8.4 -27.6°
Sets 10:23:12 0° 87° (E) 3,058 9.5 -27.1°
